TimeCST,TemperatureF,Dew PointF,Humidity,Sea Level PressureIn,VisibilityMPH,Wind Direction,Wind SpeedMPH,Gust SpeedMPH,PrecipitationIn,Events,Conditions,WindDirDegrees,DateUTC
12:15 AM,30.2,23.0,75,30.17,10.0,WSW,3.5,-,N/A,,Clear,240,2013-01-22 06:15:00
12:55 AM,30.2,23.0,75,30.16,10.0,Calm,Calm,-,N/A,,Clear,0,2013-01-22 06:55:00
1:15 AM,28.4,21.2,74,30.16,10.0,SW,5.8,-,N/A,,Clear,220,2013-01-22 07:15:00
1:35 AM,26.6,21.2,80,30.15,10.0,SW,8.1,-,N/A,,Clear,230,2013-01-22 07:35:00
1:55 AM,28.4,23.0,80,30.15,10.0,SW,6.9,-,N/A,,Clear,230,2013-01-22 07:55:00
2:15 AM,28.4,23.0,80,30.14,10.0,SW,9.2,-,N/A,,Clear,220,2013-01-22 08:15:00
2:35 AM,30.2,24.8,80,30.15,10.0,SW,9.2,-,N/A,,Clear,230,2013-01-22 08:35:00
2:55 AM,30.2,24.8,80,30.15,10.0,SW,9.2,-,N/A,,Clear,230,2013-01-22 08:55:00
3:15 AM,32.0,26.6,80,30.14,10.0,SW,10.4,-,N/A,,Clear,230,2013-01-22 09:15:00
3:35 AM,30.2,26.6,86,30.14,10.0,SW,10.4,-,N/A,,Clear,230,2013-01-22 09:35:00
3:55 AM,32.0,26.6,80,30.14,10.0,SW,9.2,-,N/A,,Clear,220,2013-01-22 09:55:00
4:15 AM,32.0,26.6,80,30.13,10.0,SSW,9.2,-,N/A,,Clear,210,2013-01-22 10:15:00
4:35 AM,30.2,26.6,86,30.13,10.0,SSW,8.1,-,N/A,,Clear,210,2013-01-22 10:35:00
4:55 AM,30.2,26.6,86,30.13,10.0,Calm,Calm,-,N/A,,Clear,0,2013-01-22 10:55:00
5:15 AM,30.2,24.8,80,30.13,10.0,SW,5.8,-,N/A,,Clear,220,2013-01-22 11:15:00
5:35 AM,28.4,24.8,86,30.13,10.0,SW,6.9,-,N/A,,Clear,230,2013-01-22 11:35:00
5:55 AM,28.4,24.8,86,30.13,10.0,SW,8.1,-,N/A,,Clear,220,2013-01-22 11:55:00
6:15 AM,26.6,24.8,93,30.13,10.0,SW,8.1,-,N/A,,Clear,230,2013-01-22 12:15:00
6:35 AM,26.6,23.0,86,30.13,10.0,WSW,6.9,-,N/A,,Clear,240,2013-01-22 12:35:00
6:55 AM,24.8,23.0,93,30.12,10.0,SW,8.1,-,N/A,,Clear,220,2013-01-22 12:55:00
7:15 AM,28.4,24.8,86,30.12,10.0,SW,9.2,-,N/A,,Clear,230,2013-01-22 13:15:00
7:35 AM,28.4,26.6,93,30.12,10.0,SW,8.1,-,N/A,,Clear,230,2013-01-22 13:35:00
7:55 AM,28.4,24.8,86,30.12,10.0,WSW,6.9,-,N/A,,Clear,240,2013-01-22 13:55:00
8:15 AM,26.6,23.0,86,30.12,10.0,WSW,5.8,-,N/A,,Clear,240,2013-01-22 14:15:00
8:35 AM,30.2,26.6,86,30.12,10.0,WSW,6.9,-,N/A,,Clear,250,2013-01-22 14:35:00
8:55 AM,32.0,28.4,87,30.12,10.0,WSW,8.1,-,N/A,,Clear,240,2013-01-22 14:55:00
9:15 AM,33.8,28.4,81,30.12,10.0,WSW,9.2,-,N/A,,Clear,250,2013-01-22 15:15:00
9:35 AM,35.6,28.4,75,30.12,10.0,WSW,13.8,18.4,N/A,,Clear,240,2013-01-22 15:35:00
9:55 AM,37.4,28.4,70,30.13,10.0,WSW,13.8,-,N/A,,Clear,250,2013-01-22 15:55:00
10:15 AM,39.2,28.4,65,30.14,10.0,WSW,10.4,-,N/A,,Clear,250,2013-01-22 16:15:00
10:55 AM,42.8,28.4,57,30.14,10.0,SW,10.4,-,N/A,,Clear,230,2013-01-22 16:55:00
11:15 AM,44.6,28.4,53,30.15,10.0,WSW,6.9,-,N/A,,Clear,250,2013-01-22 17:15:00
11:35 AM,46.4,28.4,50,30.17,10.0,West,4.6,-,N/A,,Clear,280,2013-01-22 17:35:00
11:55 AM,48.2,28.4,46,30.16,10.0,Calm,Calm,-,N/A,,Clear,0,2013-01-22 17:55:00
12:15 PM,50.0,28.4,43,30.15,10.0,Calm,Calm,-,N/A,,Clear,0,2013-01-22 18:15:00
12:55 PM,53.6,26.6,35,30.14,10.0,Calm,Calm,-,N/A,,Clear,0,2013-01-22 18:55:00
1:15 PM,-9999,-9999,N/A,-9999,-9999.0,North,-9999.0,-,N/A,,Unknown,0,2013-01-22 19:15:00
1:35 PM,55.4,23.0,29,30.12,10.0,Calm,Calm,-,N/A,,Clear,0,2013-01-22 19:35:00
2:15 PM,59.0,23.0,25,30.09,10.0,ENE,3.5,-,N/A,,Clear,70,2013-01-22 20:15:00
2:35 PM,59.0,23.0,25,30.09,10.0,SE,3.5,-,N/A,,Clear,130,2013-01-22 20:35:00
2:55 PM,60.8,21.2,22,30.08,10.0,SSW,3.5,-,N/A,,Clear,200,2013-01-22 20:55:00
3:15 PM,60.8,23.0,23,30.08,10.0,Calm,Calm,-,N/A,,Clear,0,2013-01-22 21:15:00
3:35 PM,60.8,23.0,23,30.07,10.0,South,4.6,-,N/A,,Clear,180,2013-01-22 21:35:00
3:55 PM,60.8,23.0,23,30.07,10.0,Calm,Calm,-,N/A,,Clear,0,2013-01-22 21:55:00
4:15 PM,60.8,23.0,23,30.08,10.0,Calm,Calm,-,N/A,,Clear,0,2013-01-22 22:15:00
4:35 PM,60.8,23.0,23,30.08,10.0,Calm,Calm,-,N/A,,Clear,0,2013-01-22 22:35:00
4:55 PM,62.6,23.0,22,30.09,10.0,Calm,Calm,-,N/A,,Clear,0,2013-01-22 22:55:00
5:15 PM,60.8,21.2,22,30.09,10.0,Calm,Calm,-,N/A,,Clear,0,2013-01-22 23:15:00
5:55 PM,55.4,23.0,29,30.10,10.0,NE,4.6,-,N/A,,Clear,40,2013-01-22 23:55:00
6:15 PM,53.6,23.0,30,30.10,10.0,NE,5.8,-,N/A,,Clear,40,2013-01-23 00:15:00
6:35 PM,51.8,23.0,33,30.11,10.0,ENE,4.6,-,N/A,,Clear,60,2013-01-23 00:35:00
6:55 PM,50.0,21.2,32,30.11,10.0,East,4.6,-,N/A,,Clear,90,2013-01-23 00:55:00
7:15 PM,46.4,21.2,37,30.12,10.0,East,4.6,-,N/A,,Clear,90,2013-01-23 01:15:00
7:35 PM,44.6,23.0,43,30.12,10.0,ENE,4.6,-,N/A,,Clear,70,2013-01-23 01:35:00
7:55 PM,44.6,23.0,43,30.12,10.0,East,4.6,-,N/A,,Clear,100,2013-01-23 01:55:00
8:15 PM,42.8,24.8,49,30.12,10.0,East,5.8,-,N/A,,Clear,100,2013-01-23 02:15:00
8:35 PM,42.8,24.8,49,30.13,10.0,ENE,4.6,-,N/A,,Clear,70,2013-01-23 02:35:00
9:15 PM,41.0,26.6,57,30.14,10.0,ENE,6.9,-,N/A,,Clear,60,2013-01-23 03:15:00
9:35 PM,39.2,26.6,61,30.14,10.0,East,5.8,-,N/A,,Clear,80,2013-01-23 03:35:00
9:55 PM,37.4,26.6,65,30.14,10.0,ENE,6.9,-,N/A,,Clear,70,2013-01-23 03:55:00
10:15 PM,35.6,26.6,70,30.15,10.0,ENE,6.9,-,N/A,,Clear,70,2013-01-23 04:15:00
10:35 PM,35.6,26.6,70,30.16,10.0,NE,4.6,-,N/A,,Clear,40,2013-01-23 04:35:00
10:55 PM,33.8,26.6,75,30.17,10.0,NE,4.6,-,N/A,,Clear,50,2013-01-23 04:55:00
11:15 PM,33.8,26.6,75,30.17,10.0,ENE,3.5,-,N/A,,Clear,60,2013-01-23 05:15:00
11:35 PM,33.8,28.4,81,30.18,10.0,East,3.5,-,N/A,,Clear,80,2013-01-23 05:35:00